Starlink 33825

operational
NORAD ID: 63505 Int'l Des: 2025-071 Owner: SPXS Country: US Constellation: starlink
LEOCIRCULAR

Über Starlink 33825

Beschreibung wird geladen...

Live-Position

3D-Globus wird geladen...

Nächste Überflüge

Höhenverlauf

Altitude vs Time

uPlot chart will show altitude changes over time

Zweizeiliger Elementsatz

1 63505U 25071N 26034.13986362 .00032740 00000-0 11118-2 0 9997
2 63505 53.1582 300.1554 0001617 219.4298 140.6585 15.30224381 47484
Epoch: 3. Feb. 2026 • Age: 9 hours

Aktueller Status

Höhe 477.9 km
Geschwindigkeit 7.63 km/s
Subsatellitenpunkt -7.19°S, 31.6°W
Startdatum 7. Apr. 2025
Alter 0.8 years
Typ internet

Technische Details

Klassifizierung Payload
Masse 575.00 kg
Trockenmasse 530.00 kg
Gesamtmasse 575.00 kg
Länge 0.30 m
Durchmesser 4.10 m
Spannweite 29.00 m
Form Box + pan
Hersteller SPXS
Bus-Typ Starlink V2MO
Phasenstatus In Orbit
Besitzer/Staat SPXS/US

Große Konstellationen

Loading constellations...